{"data":{"norad_id":62049,"intl_designator":"2024-216T","name":"STARLINK-32473","alt_names":[],"object_type":"PAYLOAD","status":"ACTIVE","operator":null,"country":"US","launch_date":"2024-11-21","launch_site_code":"AFETR","launch_vehicle":null,"mission":null,"orbit_class":"UNKNOWN","rcs_meters":null,"size_class":null,"mass_kg":null,"dimensions":null,"purposes":["comms"],"wikipedia_slug":null,"has_3d_model":false,"image_url":null,"decayed_at":null,"tle_current":{"epoch":"2026-09-21T21:45:00.565920Z","epoch_age_seconds":64041,"freshness":"FRESH","line1":"1 62049U 24216T   26264.90625655  .00012293  00000+0  45543-3 0  9994","line2":"2 62049  42.9989 228.2616 0001142 273.3685  86.7036 15.27583607102729","mean_motion":15.27583607,"eccentricity":0.0001142,"inclination_deg":42.9989,"raan_deg":228.2616,"arg_perigee_deg":273.3685,"mean_anomaly_deg":86.7036,"bstar":0.00045543,"rev_number":10272,"period_min":94.26652612671,"perigee_km":482.25474918656,"apogee_km":483.82184162403,"semimajor_km":6861.1752954053,"source":"CELESTRAK","updated_at":"2026-09-22T09:00:49.489671Z"}}}